BAW2TW EGKK-KBOS

Flight info

Callsign BAW2TW
Flight time 6h 49m
Altitude 34000
Route NOVMA L620 SAM N19 ADKIK DCT PEWBI DCT MOPAT DCT RESNO/M084F350 NATE LOMSI/N0495F360 N660C EBONY DCT AJJAY OOSHN5
Aircraft B77W/H-SDE1E2E3FGHIJ2J3J4J5M1RWXY/LB1D1

Departure

Time 2026-04-07 14:28
Airport London Gatwick Airport (EGKK)

Arrival

Time 2026-04-07 21:17
Airport Boston Logan International Airport (KBOS)
Time Latitude Longitude Altitude Speed Heading
2026-04-07 13:51 51.15563 -0.17103 210 ft 0 kts 167°
2026-04-07 14:09 51.15567 -0.17105 210 ft 2 kts 166°
2026-04-07 14:09 51.15577 -0.17108 223 ft 1 kts 172°
2026-04-07 14:09 51.15588 -0.17111 224 ft 2 kts 174°
2026-04-07 14:10 51.15604 -0.17112 221 ft 2 kts 184°
2026-04-07 14:10 51.15620 -0.17108 222 ft 2 kts 204°
2026-04-07 14:10 51.15634 -0.17093 218 ft 2 kts 241°
2026-04-07 14:10 51.15639 -0.17071 215 ft 1 kts 259°
2026-04-07 14:11 51.15640 -0.17067 214 ft 0 kts 259°
2026-04-07 14:12 51.15636 -0.17102 217 ft 7 kts 259°
2026-04-07 14:13 51.15626 -0.17178 213 ft 7 kts 259°
2026-04-07 14:13 51.15616 -0.17254 219 ft 7 kts 256°
2026-04-07 14:13 51.15608 -0.17304 215 ft 0 kts 256°
2026-04-07 14:14 51.15605 -0.17319 215 ft 7 kts 256°
2026-04-07 14:14 51.15557 -0.17419 219 ft 13 kts 198°
2026-04-07 14:14 51.15464 -0.17411 210 ft 13 kts 168°
2026-04-07 14:15 51.15370 -0.17381 220 ft 14 kts 177°
2026-04-07 14:15 51.15301 -0.17475 220 ft 14 kts 252°
2026-04-07 14:15 51.15272 -0.17627 221 ft 14 kts 253°
2026-04-07 14:15 51.15248 -0.17779 210 ft 14 kts 257°
2026-04-07 14:16 51.15230 -0.17936 220 ft 14 kts 262°
2026-04-07 14:16 51.15214 -0.18093 218 ft 15 kts 259°
2026-04-07 14:16 51.15187 -0.18287 218 ft 23 kts 258°
2026-04-07 14:16 51.15140 -0.18666 214 ft 46 kts 258°
2026-04-07 14:17 51.15069 -0.19200 214 ft 48 kts 258°
2026-04-07 14:17 51.15006 -0.19654 215 ft 36 kts 257°
2026-04-07 14:17 51.14957 -0.19997 213 ft 24 kts 257°
2026-04-07 14:17 51.14920 -0.20256 209 ft 24 kts 259°
2026-04-07 14:18 51.14887 -0.20515 216 ft 24 kts 258°
2026-04-07 14:18 51.14818 -0.20658 220 ft 13 kts 213°
2026-04-07 14:18 51.14757 -0.20710 220 ft 0 kts 201°
2026-04-07 14:20 51.14734 -0.20716 218 ft 5 kts 186°
2026-04-07 14:20 51.14715 -0.20716 217 ft 0 kts 181°
2026-04-07 14:26 51.14702 -0.20714 218 ft 7 kts 173°
2026-04-07 14:26 51.14640 -0.20682 217 ft 11 kts 152°
2026-04-07 14:27 51.14617 -0.20571 219 ft 13 kts 95°
2026-04-07 14:27 51.14626 -0.20428 222 ft 14 kts 77°
2026-04-07 14:27 51.14659 -0.20180 220 ft 35 kts 79°
2026-04-07 14:27 51.14746 -0.19533 220 ft 92 kts 77°
2026-04-07 14:28 51.14928 -0.18209 222 ft 150 kts 78°
2026-04-07 14:28 51.15110 -0.16390 440 ft 167 kts 83°
2026-04-07 14:28 51.15305 -0.14633 1087 ft 161 kts 78°
2026-04-07 14:28 51.15667 -0.12868 1518 ft 170 kts 73°
2026-04-07 14:29 51.16053 -0.11140 2243 ft 164 kts 79°
2026-04-07 14:29 51.16392 -0.09342 2643 ft 177 kts 84°
2026-04-07 14:29 51.16519 -0.07322 2930 ft 193 kts 79°
2026-04-07 14:29 51.17323 -0.05427 3021 ft 229 kts 38°
2026-04-07 14:30 51.18915 -0.04745 3283 ft 254 kts 355°
2026-04-07 14:30 51.20658 -0.05666 3545 ft 278 kts 327°
2026-04-07 14:30 51.22025 -0.07862 4250 ft 280 kts 298°
2026-04-07 14:30 51.22626 -0.10737 5328 ft 271 kts 269°
2026-04-07 14:31 51.22423 -0.13681 6157 ft 269 kts 257°
2026-04-07 14:31 51.22057 -0.16640 6985 ft 274 kts 256°
2026-04-07 14:31 51.21681 -0.19633 7835 ft 277 kts 256°
2026-04-07 14:31 51.21308 -0.22654 8727 ft 279 kts 256°
2026-04-07 14:32 51.20944 -0.25720 9554 ft 283 kts 256°
2026-04-07 14:32 51.20581 -0.28820 10367 ft 286 kts 256°
2026-04-07 14:32 51.20209 -0.32001 10883 ft 301 kts 256°
2026-04-07 14:32 51.19946 -0.34238 11001 ft 319 kts 256°
2026-04-07 14:33 51.17863 -0.50204 13096 ft 380 kts 255°
2026-04-07 14:34 51.17273 -0.54338 13937 ft 383 kts 251°
2026-04-07 14:34 51.16362 -0.58336 14683 ft 386 kts 245°
2026-04-07 14:34 51.15270 -0.62261 15502 ft 388 kts 243°
2026-04-07 14:34 51.14140 -0.66184 16316 ft 392 kts 243°
2026-04-07 14:35 51.13025 -0.70114 17026 ft 398 kts 244°
2026-04-07 14:35 51.11909 -0.74146 17883 ft 399 kts 244°
2026-04-07 14:35 51.10799 -0.78230 18618 ft 405 kts 245°
2026-04-07 14:35 51.09684 -0.82371 19281 ft 408 kts 245°
2026-04-07 14:36 51.08568 -0.86529 19997 ft 411 kts 245°
2026-04-07 14:36 51.07438 -0.90741 20613 ft 415 kts 245°
2026-04-07 14:36 51.06300 -0.94961 21372 ft 417 kts 245°
2026-04-07 14:36 51.05147 -0.99214 21983 ft 421 kts 245°
2026-04-07 14:37 51.03975 -1.03525 22505 ft 427 kts 245°
2026-04-07 14:37 51.02795 -1.07856 23266 ft 428 kts 245°
2026-04-07 14:37 51.01618 -1.12169 23729 ft 435 kts 245°
2026-04-07 14:37 51.00414 -1.16581 24320 ft 436 kts 245°
2026-04-07 14:38 50.99203 -1.21011 24814 ft 440 kts 245°
2026-04-07 14:38 50.97981 -1.25475 25398 ft 441 kts 245°
2026-04-07 14:38 50.96749 -1.29961 25843 ft 446 kts 246°
2026-04-07 14:38 50.95637 -1.34572 26328 ft 449 kts 250°
2026-04-07 14:39 50.94184 -1.44188 27263 ft 457 kts 258°
2026-04-07 14:39 50.93581 -1.49130 27893 ft 456 kts 258°
2026-04-07 14:39 50.92975 -1.54078 28311 ft 459 kts 258°
2026-04-07 14:40 50.92353 -1.59064 28618 ft 464 kts 257°
2026-04-07 14:40 50.91715 -1.64082 29076 ft 465 kts 257°
2026-04-07 14:40 50.91066 -1.69119 29412 ft 468 kts 257°
2026-04-07 14:40 50.90409 -1.74177 29792 ft 470 kts 257°
2026-04-07 14:41 50.89744 -1.79270 30098 ft 473 kts 257°
2026-04-07 14:41 50.89086 -1.84302 30451 ft 473 kts 257°
2026-04-07 14:41 50.88417 -1.89407 30799 ft 473 kts 257°
2026-04-07 14:41 50.87746 -1.94510 31194 ft 472 kts 257°
2026-04-07 14:42 50.87078 -1.99575 31660 ft 469 kts 256°
2026-04-07 14:42 50.86409 -2.04633 32013 ft 469 kts 256°
2026-04-07 14:42 50.85740 -2.09682 32410 ft 467 kts 256°
2026-04-07 14:42 50.85073 -2.14709 32816 ft 466 kts 256°
2026-04-07 14:43 50.84407 -2.19717 33183 ft 465 kts 256°
2026-04-07 14:43 50.83738 -2.24720 33512 ft 464 kts 256°
2026-04-07 14:43 50.83078 -2.29645 33853 ft 463 kts 256°
2026-04-07 14:43 50.82410 -2.34623 34071 ft 465 kts 256°
2026-04-07 14:44 50.81732 -2.39653 34119 ft 469 kts 255°
2026-04-07 14:44 50.80500 -2.49757 34117 ft 466 kts 262°
2026-04-07 14:45 50.80709 -2.59981 34133 ft 467 kts 275°
2026-04-07 14:45 50.82263 -2.69990 34140 ft 471 kts 282°
2026-04-07 14:46 50.84064 -2.79928 34128 ft 473 kts 282°
2026-04-07 14:46 50.85848 -2.89936 34136 ft 472 kts 282°
2026-04-07 14:47 50.87589 -2.99949 34122 ft 471 kts 282°
2026-04-07 14:47 50.89304 -3.09960 34131 ft 471 kts 281°
2026-04-07 14:48 50.90996 -3.19904 34135 ft 471 kts 281°
2026-04-07 14:48 50.92693 -3.29922 34135 ft 471 kts 281°
2026-04-07 14:49 50.94383 -3.39955 34132 ft 471 kts 281°
2026-04-07 14:49 50.96065 -3.49999 34120 ft 472 kts 281°
2026-04-07 14:50 50.97739 -3.60053 34127 ft 472 kts 281°
2026-04-07 14:50 50.99395 -3.70058 34105 ft 472 kts 280°
2026-04-07 14:51 51.01057 -3.80155 34103 ft 473 kts 280°
2026-04-07 14:51 51.02709 -3.90250 34088 ft 472 kts 280°
2026-04-07 14:52 51.04349 -4.00339 34078 ft 471 kts 280°
2026-04-07 14:52 51.05968 -4.10353 34079 ft 472 kts 279°
2026-04-07 14:53 51.07590 -4.20448 34072 ft 471 kts 279°
2026-04-07 14:53 51.09202 -4.30543 34067 ft 471 kts 279°
2026-04-07 14:54 51.10804 -4.40642 34067 ft 471 kts 279°
2026-04-07 14:54 51.12387 -4.50675 34068 ft 471 kts 279°
2026-04-07 14:55 51.13972 -4.60784 34065 ft 470 kts 279°
2026-04-07 14:55 51.15546 -4.70883 34067 ft 470 kts 278°
2026-04-07 14:56 51.17112 -4.80996 34065 ft 470 kts 278°
2026-04-07 14:56 51.18670 -4.91117 34068 ft 471 kts 278°
2026-04-07 14:57 51.20210 -5.01191 34064 ft 471 kts 278°
2026-04-07 14:57 51.21750 -5.11329 34068 ft 471 kts 278°
2026-04-07 14:58 51.23285 -5.21489 34066 ft 471 kts 278°
2026-04-07 14:58 51.24807 -5.31633 34070 ft 471 kts 277°
2026-04-07 14:59 51.26314 -5.41749 34066 ft 472 kts 277°
2026-04-07 14:59 51.27825 -5.51955 34064 ft 472 kts 277°
2026-04-07 15:00 51.29329 -5.62177 34066 ft 473 kts 277°
2026-04-07 15:00 51.30826 -5.72419 34055 ft 474 kts 277°
2026-04-07 15:01 51.32316 -5.82683 34063 ft 474 kts 277°
2026-04-07 15:01 51.33790 -5.92900 34058 ft 475 kts 277°
2026-04-07 15:02 51.35265 -6.03196 34064 ft 475 kts 277°
2026-04-07 15:02 51.36732 -6.13508 34062 ft 476 kts 277°
2026-04-07 15:03 51.38194 -6.23848 34055 ft 476 kts 277°
2026-04-07 15:03 51.39636 -6.34126 34060 ft 477 kts 277°
2026-04-07 15:04 51.41081 -6.44493 34065 ft 477 kts 277°
2026-04-07 15:04 51.42519 -6.54880 34061 ft 477 kts 277°
2026-04-07 15:05 51.43947 -6.65265 34058 ft 477 kts 277°
2026-04-07 15:05 51.45354 -6.75577 34058 ft 477 kts 277°
2026-04-07 15:06 51.46764 -6.85981 34055 ft 477 kts 277°
2026-04-07 15:06 51.48164 -6.96380 34058 ft 477 kts 277°
2026-04-07 15:07 51.49877 -7.06684 34052 ft 483 kts 288°
2026-04-07 15:07 51.53161 -7.16084 34054 ft 492 kts 303°
2026-04-07 15:08 51.57525 -7.24595 34058 ft 494 kts 306°
2026-04-07 15:08 51.61956 -7.33031 34054 ft 493 kts 306°
2026-04-07 15:09 51.66337 -7.41506 34059 ft 492 kts 305°
2026-04-07 15:09 51.70683 -7.50035 34055 ft 492 kts 304°
2026-04-07 15:10 51.74983 -7.58533 34047 ft 492 kts 304°
2026-04-07 15:10 51.79302 -7.67096 34048 ft 492 kts 304°
2026-04-07 15:11 51.83621 -7.75682 34052 ft 493 kts 304°
2026-04-07 15:11 51.87938 -7.84292 34047 ft 493 kts 304°
2026-04-07 15:12 51.92227 -7.92872 34044 ft 493 kts 304°
2026-04-07 15:12 51.96540 -8.01531 34049 ft 494 kts 304°
2026-04-07 15:13 52.00851 -8.10216 34047 ft 494 kts 304°
2026-04-07 15:13 52.05131 -8.18866 34042 ft 495 kts 303°
2026-04-07 15:14 52.09433 -8.27591 34052 ft 494 kts 303°
2026-04-07 15:14 52.13729 -8.36333 34045 ft 494 kts 303°
2026-04-07 15:15 52.18014 -8.45082 34049 ft 494 kts 303°
2026-04-07 15:15 52.22292 -8.53850 34028 ft 494 kts 303°
2026-04-07 15:16 52.26526 -8.62557 34028 ft 493 kts 302°
2026-04-07 15:16 52.30788 -8.71349 34035 ft 494 kts 302°
2026-04-07 15:17 52.35043 -8.80161 34068 ft 493 kts 302°
2026-04-07 15:17 52.39283 -8.88969 34042 ft 492 kts 302°
2026-04-07 15:18 52.43481 -8.97719 34043 ft 492 kts 302°
2026-04-07 15:18 52.47704 -9.06556 34042 ft 492 kts 302°
2026-04-07 15:19 52.51920 -9.15409 34045 ft 493 kts 302°
2026-04-07 15:19 52.56137 -9.24293 34044 ft 493 kts 302°
2026-04-07 15:20 52.60341 -9.33179 34039 ft 492 kts 302°
2026-04-07 15:20 52.64512 -9.42028 34035 ft 493 kts 301°
2026-04-07 15:21 52.68706 -9.50957 34030 ft 493 kts 301°
2026-04-07 15:21 52.72897 -9.59912 34049 ft 493 kts 301°
2026-04-07 15:22 52.77085 -9.68892 34045 ft 494 kts 301°
2026-04-07 15:22 52.81233 -9.77815 34033 ft 492 kts 301°
2026-04-07 15:23 52.85396 -9.86802 34042 ft 492 kts 301°
2026-04-07 15:23 52.89560 -9.95828 34039 ft 494 kts 301°
2026-04-07 15:24 52.93727 -10.04890 34030 ft 494 kts 301°
2026-04-07 15:24 52.97861 -10.13912 34032 ft 495 kts 300°
2026-04-07 15:25 53.02020 -10.23019 34044 ft 495 kts 300°
2026-04-07 15:25 53.06169 -10.32139 34044 ft 495 kts 300°
2026-04-07 15:26 53.10313 -10.41281 34053 ft 495 kts 300°
2026-04-07 15:26 53.14450 -10.50443 34043 ft 495 kts 300°
2026-04-07 15:27 53.18556 -10.59566 34048 ft 495 kts 299°
2026-04-07 15:27 53.22681 -10.68767 34045 ft 495 kts 299°
2026-04-07 15:28 53.26802 -10.77989 34050 ft 495 kts 299°
2026-04-07 15:28 53.30885 -10.87162 34048 ft 495 kts 298°
2026-04-07 15:29 53.34993 -10.96424 34050 ft 496 kts 298°
2026-04-07 15:29 53.39092 -11.05701 34055 ft 496 kts 298°
2026-04-07 15:30 53.43189 -11.15008 34054 ft 496 kts 298°
2026-04-07 15:30 53.47254 -11.24275 34053 ft 496 kts 298°
2026-04-07 15:31 53.51339 -11.33621 34058 ft 496 kts 298°
2026-04-07 15:31 53.55419 -11.42994 34063 ft 497 kts 298°
2026-04-07 15:32 53.59500 -11.52403 34071 ft 498 kts 298°
2026-04-07 15:32 53.63546 -11.61764 34071 ft 498 kts 297°
2026-04-07 15:33 53.67611 -11.71205 34060 ft 498 kts 297°
2026-04-07 15:33 53.71671 -11.80671 34075 ft 499 kts 297°
2026-04-07 15:34 53.75737 -11.90190 34081 ft 500 kts 297°
2026-04-07 15:34 53.79778 -11.99683 34077 ft 501 kts 297°
2026-04-07 15:35 53.83838 -12.09253 34081 ft 500 kts 297°
2026-04-07 15:35 53.87892 -12.18848 34082 ft 501 kts 297°
2026-04-07 15:36 53.91940 -12.28468 34080 ft 501 kts 297°
2026-04-07 15:36 53.95983 -12.38109 34081 ft 501 kts 297°
2026-04-07 15:37 53.99983 -12.47686 34087 ft 500 kts 297°
2026-04-07 15:37 54.04001 -12.57343 34090 ft 499 kts 297°
2026-04-07 15:38 54.07999 -12.66990 34078 ft 498 kts 297°
2026-04-07 15:38 54.11983 -12.76642 34082 ft 498 kts 297°
2026-04-07 15:39 54.15928 -12.86236 34082 ft 497 kts 298°
2026-04-07 15:39 54.19882 -12.95887 34081 ft 496 kts 298°
2026-04-07 15:40 54.23824 -13.05548 34085 ft 495 kts 298°
2026-04-07 15:40 54.27749 -13.15202 34084 ft 493 kts 298°
2026-04-07 15:41 54.31621 -13.24763 34081 ft 491 kts 298°
2026-04-07 15:41 54.35499 -13.34378 34080 ft 490 kts 298°
2026-04-07 15:42 54.39358 -13.43982 34082 ft 488 kts 298°
2026-04-07 15:42 54.45108 -13.58359 34075 ft 485 kts 299°
2026-04-07 15:43 54.48913 -13.67920 34075 ft 484 kts 299°
2026-04-07 15:43 54.52674 -13.77407 34080 ft 482 kts 299°
2026-04-07 15:44 54.56439 -13.86941 34077 ft 481 kts 299°
2026-04-07 15:44 54.60191 -13.96478 34072 ft 480 kts 299°
2026-04-07 15:45 54.63898 -14.05937 34074 ft 479 kts 299°
2026-04-07 15:45 54.67620 -14.15469 34074 ft 478 kts 299°
2026-04-07 15:46 54.71323 -14.24990 34078 ft 477 kts 300°
2026-04-07 15:46 54.75011 -14.34510 34078 ft 476 kts 300°
2026-04-07 15:47 54.78690 -14.44044 34082 ft 476 kts 300°
2026-04-07 15:47 54.80528 -14.48820 34269 ft 477 kts 300°
2026-04-07 15:47 54.82338 -14.53532 34585 ft 475 kts 300°
2026-04-07 15:48 54.84162 -14.58289 34929 ft 472 kts 300°
2026-04-07 15:48 54.85976 -14.63029 35242 ft 471 kts 300°
2026-04-07 15:48 54.87785 -14.67766 35510 ft 470 kts 300°
2026-04-07 15:48 54.89590 -14.72501 35738 ft 471 kts 300°
2026-04-07 15:49 54.91391 -14.77239 35952 ft 471 kts 300°
2026-04-07 15:49 54.93198 -14.81998 36002 ft 472 kts 300°
2026-04-07 15:49 54.96780 -14.91457 36074 ft 471 kts 300°
2026-04-07 15:50 55.00192 -15.01147 36084 ft 466 kts 294°
2026-04-07 15:50 55.02678 -15.11516 36077 ft 463 kts 288°
2026-04-07 15:51 55.04980 -15.22015 36070 ft 464 kts 288°
2026-04-07 15:51 55.07277 -15.32454 36062 ft 464 kts 288°
2026-04-07 15:52 55.09597 -15.42945 36066 ft 463 kts 288°
2026-04-07 15:52 55.11913 -15.53433 36063 ft 462 kts 289°
2026-04-07 15:53 55.14217 -15.63911 36063 ft 462 kts 288°
2026-04-07 15:53 55.16494 -15.74330 36063 ft 461 kts 288°
2026-04-07 15:54 55.18774 -15.84813 36071 ft 461 kts 288°
2026-04-07 15:54 55.21043 -15.95304 36059 ft 461 kts 288°
2026-04-07 15:55 55.23302 -16.05798 36065 ft 460 kts 288°
2026-04-07 15:55 55.25549 -16.16294 36058 ft 460 kts 288°
2026-04-07 15:56 55.27770 -16.26717 36061 ft 460 kts 288°
2026-04-07 15:56 55.29998 -16.37231 36060 ft 459 kts 288°
2026-04-07 15:57 55.32215 -16.47743 36054 ft 459 kts 288°
2026-04-07 15:57 55.34418 -16.58249 36053 ft 458 kts 288°
2026-04-07 15:58 55.36597 -16.68688 36055 ft 458 kts 288°
2026-04-07 15:58 55.38779 -16.79202 36052 ft 458 kts 288°
2026-04-07 15:59 55.40952 -16.89722 36052 ft 457 kts 288°
2026-04-07 15:59 55.43109 -17.00226 36050 ft 456 kts 288°
2026-04-07 16:00 55.45246 -17.10682 36046 ft 456 kts 288°
2026-04-07 16:00 55.47383 -17.21194 36043 ft 456 kts 288°
2026-04-07 16:01 55.49511 -17.31721 36042 ft 455 kts 288°
2026-04-07 16:01 55.51627 -17.42244 36044 ft 454 kts 288°
2026-04-07 16:02 55.53714 -17.52673 36042 ft 454 kts 288°
2026-04-07 16:02 55.55804 -17.63179 36031 ft 453 kts 288°
2026-04-07 16:03 55.57884 -17.73668 36035 ft 452 kts 288°
2026-04-07 16:03 55.59947 -17.84167 36049 ft 452 kts 287°
2026-04-07 16:04 55.61989 -17.94602 36040 ft 452 kts 287°
2026-04-07 16:04 55.64040 -18.05133 36041 ft 452 kts 287°
2026-04-07 16:05 55.66081 -18.15669 36030 ft 452 kts 287°
2026-04-07 16:05 55.68110 -18.26202 36035 ft 452 kts 287°
2026-04-07 16:06 55.70120 -18.36690 36025 ft 452 kts 287°
2026-04-07 16:06 55.72130 -18.47241 36029 ft 452 kts 287°
2026-04-07 16:07 55.74133 -18.57813 36018 ft 452 kts 287°
2026-04-07 16:07 55.76126 -18.68390 36021 ft 452 kts 286°
2026-04-07 16:08 55.78095 -18.78900 36010 ft 452 kts 286°
2026-04-07 16:08 55.80071 -18.89505 36016 ft 452 kts 286°
2026-04-07 16:09 55.82035 -19.00108 36010 ft 452 kts 286°
2026-04-07 16:09 55.83992 -19.10729 36013 ft 451 kts 285°
2026-04-07 16:10 55.85923 -19.21271 36001 ft 451 kts 285°
2026-04-07 16:10 55.87859 -19.31904 36007 ft 452 kts 285°
2026-04-07 16:11 55.89788 -19.42556 35996 ft 452 kts 285°
2026-04-07 16:11 55.91708 -19.53214 36006 ft 452 kts 285°
2026-04-07 16:12 55.93607 -19.63825 35989 ft 452 kts 285°
2026-04-07 16:12 55.95510 -19.74516 35994 ft 452 kts 285°
2026-04-07 16:13 55.97402 -19.85210 35982 ft 452 kts 285°
2026-04-07 16:13 55.99288 -19.95922 35984 ft 452 kts 284°
2026-04-07 16:14 56.01068 -20.06626 35974 ft 452 kts 282°
2026-04-07 16:14 56.02593 -20.17512 35984 ft 451 kts 281°
2026-04-07 16:15 56.04078 -20.28424 35974 ft 451 kts 281°
2026-04-07 16:15 56.05585 -20.39329 35971 ft 452 kts 281°
2026-04-07 16:16 56.07094 -20.50175 35962 ft 452 kts 281°
2026-04-07 16:16 56.08611 -20.61097 35966 ft 452 kts 281°
2026-04-07 16:17 56.10118 -20.72036 35952 ft 453 kts 281°
2026-04-07 16:17 56.11616 -20.82987 35958 ft 453 kts 281°
2026-04-07 16:18 56.13104 -20.93954 35948 ft 453 kts 281°
2026-04-07 16:18 56.14955 -21.04634 35946 ft 457 kts 295°
2026-04-07 16:19 56.17775 -21.14756 35924 ft 451 kts 279°
2026-04-07 16:19 56.18454 -21.25943 35951 ft 452 kts 272°
2026-04-07 16:20 56.19132 -21.37154 35921 ft 451 kts 276°
2026-04-07 16:20 56.20288 -21.48221 35933 ft 451 kts 279°
2026-04-07 16:21 56.21674 -21.59137 35920 ft 452 kts 280°
2026-04-07 16:21 56.23117 -21.70124 35921 ft 452 kts 280°
2026-04-07 16:22 56.24524 -21.80976 35904 ft 452 kts 280°
2026-04-07 16:22 56.25919 -21.91917 35907 ft 452 kts 280°
2026-04-07 16:23 56.27307 -22.02938 35894 ft 451 kts 280°
2026-04-07 16:23 56.28684 -22.13958 35894 ft 451 kts 279°
2026-04-07 16:24 56.30050 -22.24981 35882 ft 451 kts 279°
2026-04-07 16:24 56.31398 -22.35941 35885 ft 451 kts 279°
2026-04-07 16:25 56.32746 -22.46992 35876 ft 452 kts 279°
2026-04-07 16:25 56.34085 -22.58055 35884 ft 452 kts 279°
2026-04-07 16:26 56.35416 -22.69138 35853 ft 452 kts 279°
2026-04-07 16:26 56.36728 -22.80150 35863 ft 452 kts 279°
2026-04-07 16:27 56.38039 -22.91244 35849 ft 452 kts 279°
2026-04-07 16:27 56.39339 -23.02342 35850 ft 452 kts 279°
2026-04-07 16:28 56.40630 -23.13457 35834 ft 452 kts 279°
2026-04-07 16:28 56.41912 -23.24578 35835 ft 452 kts 278°
2026-04-07 16:29 56.43176 -23.35644 35820 ft 453 kts 278°
2026-04-07 16:29 56.44438 -23.46781 35819 ft 452 kts 278°
2026-04-07 16:30 56.45690 -23.57928 35804 ft 453 kts 278°
2026-04-07 16:30 56.46932 -23.69084 35805 ft 452 kts 278°
2026-04-07 16:31 56.48164 -23.80252 35794 ft 453 kts 278°
2026-04-07 16:31 56.49378 -23.91349 35787 ft 453 kts 278°
2026-04-07 16:32 56.50592 -24.02542 35777 ft 453 kts 278°
2026-04-07 16:32 56.51795 -24.13738 35783 ft 453 kts 278°
2026-04-07 16:33 56.52990 -24.24955 35764 ft 453 kts 278°
2026-04-07 16:33 56.54165 -24.36084 35764 ft 453 kts 277°
2026-04-07 16:34 56.55295 -24.46894 35744 ft 453 kts 277°
2026-04-07 16:34 56.56459 -24.58124 35747 ft 453 kts 277°
2026-04-07 16:35 56.57614 -24.69372 35722 ft 454 kts 277°
2026-04-07 16:35 56.58751 -24.80543 35729 ft 453 kts 277°
2026-04-07 16:36 56.59885 -24.91797 35714 ft 454 kts 277°
2026-04-07 16:36 56.61010 -25.03073 35718 ft 454 kts 277°
2026-04-07 16:37 56.62125 -25.14354 35702 ft 454 kts 277°
2026-04-07 16:37 56.63231 -25.25655 35705 ft 454 kts 277°
2026-04-07 16:38 56.64320 -25.36895 35679 ft 455 kts 277°
2026-04-07 16:38 56.65406 -25.48217 35683 ft 455 kts 277°
2026-04-07 16:39 56.66483 -25.59553 35665 ft 455 kts 277°
2026-04-07 16:39 56.67551 -25.70909 35665 ft 455 kts 277°
2026-04-07 16:40 56.68609 -25.82271 35650 ft 456 kts 277°
2026-04-07 16:40 56.69650 -25.93574 35649 ft 456 kts 276°
2026-04-07 16:41 56.70687 -26.04957 35638 ft 457 kts 276°
2026-04-07 16:41 56.71716 -26.16362 35624 ft 456 kts 276°
2026-04-07 16:42 56.72734 -26.27776 35618 ft 457 kts 276°
2026-04-07 16:42 56.73737 -26.39134 35606 ft 457 kts 276°
2026-04-07 16:43 56.74734 -26.50552 35583 ft 457 kts 276°
2026-04-07 16:43 56.75722 -26.61999 35597 ft 457 kts 276°
2026-04-07 16:44 56.76699 -26.73443 35575 ft 458 kts 276°
2026-04-07 16:44 56.77661 -26.84845 35573 ft 459 kts 276°
2026-04-07 16:45 56.78623 -26.96369 35554 ft 460 kts 276°
2026-04-07 16:45 56.79575 -27.07901 35554 ft 459 kts 276°
2026-04-07 16:46 56.80513 -27.19394 35530 ft 456 kts 276°
2026-04-07 16:46 56.81426 -27.30726 35528 ft 453 kts 276°
2026-04-07 16:47 56.82330 -27.42074 35512 ft 452 kts 276°
2026-04-07 16:47 56.83224 -27.53453 35518 ft 454 kts 276°
2026-04-07 16:48 56.84113 -27.64886 35497 ft 455 kts 276°
2026-04-07 16:49 56.85419 -27.81939 35481 ft 452 kts 276°
2026-04-07 16:49 56.86277 -27.93308 35460 ft 450 kts 276°
2026-04-07 16:50 56.87120 -28.04633 35451 ft 449 kts 276°
2026-04-07 16:50 56.87812 -28.14042 35446 ft 450 kts 276°
2026-04-07 16:51 56.88773 -28.27293 35438 ft 455 kts 276°
2026-04-07 16:51 56.89599 -28.38836 35436 ft 460 kts 276°
2026-04-07 16:52 56.90286 -28.48535 35421 ft 464 kts 276°
2026-04-07 16:52 56.91107 -28.60288 35411 ft 467 kts 276°
2026-04-07 16:53 56.92052 -28.74011 35404 ft 467 kts 276°
2026-04-07 16:53 56.92854 -28.85854 35384 ft 470 kts 276°
2026-04-07 16:54 56.93509 -28.95644 35377 ft 462 kts 276°
2026-04-07 16:54 56.94276 -29.07252 35356 ft 459 kts 276°
2026-04-07 16:55 56.95155 -29.20813 35361 ft 464 kts 276°
2026-04-07 16:55 56.95787 -29.30672 35341 ft 466 kts 276°
2026-04-07 16:56 56.96527 -29.42392 35328 ft 467 kts 276°
2026-04-07 16:56 56.97262 -29.54219 35313 ft 466 kts 276°
2026-04-07 16:57 56.97984 -29.66023 35315 ft 467 kts 276°
2026-04-07 16:57 56.98697 -29.77859 35297 ft 468 kts 276°
2026-04-07 16:58 56.99398 -29.89650 35291 ft 468 kts 276°
2026-04-07 16:58 56.99806 -30.01431 35269 ft 461 kts 270°
2026-04-07 16:59 56.99268 -30.13163 35277 ft 464 kts 265°
2026-04-07 16:59 56.98532 -30.24958 35252 ft 466 kts 265°
2026-04-07 17:00 56.97808 -30.36702 35255 ft 467 kts 265°
2026-04-07 17:00 56.97083 -30.48471 35236 ft 464 kts 265°
2026-04-07 17:01 56.96349 -30.60252 35232 ft 466 kts 265°
2026-04-07 17:01 56.95600 -30.72086 35226 ft 468 kts 265°
2026-04-07 17:02 56.94838 -30.83929 35214 ft 466 kts 265°
2026-04-07 17:02 56.94075 -30.95619 35204 ft 466 kts 265°
2026-04-07 17:03 56.93297 -31.07431 35212 ft 467 kts 265°
2026-04-07 17:03 56.92502 -31.19245 35196 ft 469 kts 265°
2026-04-07 17:04 56.91706 -31.30903 35187 ft 470 kts 265°
2026-04-07 17:04 56.90892 -31.42667 35179 ft 467 kts 265°
2026-04-07 17:05 56.90069 -31.54383 35169 ft 464 kts 265°
2026-04-07 17:05 56.89239 -31.66078 35175 ft 464 kts 265°
2026-04-07 17:06 56.88395 -31.77804 35176 ft 466 kts 265°
2026-04-07 17:06 56.87543 -31.89478 35175 ft 467 kts 265°
2026-04-07 17:07 56.86672 -32.01240 35162 ft 467 kts 264°
2026-04-07 17:07 56.85793 -32.12990 35165 ft 466 kts 264°
2026-04-07 17:08 56.84903 -32.24712 35155 ft 464 kts 264°
2026-04-07 17:08 56.84013 -32.36269 35152 ft 462 kts 264°
2026-04-07 17:09 56.83106 -32.47926 35152 ft 465 kts 264°
2026-04-07 17:09 56.82186 -32.59608 35156 ft 465 kts 264°
2026-04-07 17:10 56.81252 -32.71316 35151 ft 466 kts 264°
2026-04-07 17:10 56.80308 -32.82985 35141 ft 463 kts 264°
2026-04-07 17:11 56.79367 -32.94504 35145 ft 463 kts 263°
2026-04-07 17:11 56.78403 -33.06162 35152 ft 465 kts 263°
2026-04-07 17:12 56.77426 -33.17854 35142 ft 467 kts 263°
2026-04-07 17:12 56.76436 -33.29542 35136 ft 464 kts 263°
2026-04-07 17:13 56.75454 -33.40983 35133 ft 458 kts 263°
2026-04-07 17:13 56.74474 -33.52311 35144 ft 461 kts 263°
2026-04-07 17:14 56.73462 -33.63888 35137 ft 464 kts 263°
2026-04-07 17:14 56.72433 -33.75514 35136 ft 466 kts 263°
2026-04-07 17:15 56.71407 -33.86965 35122 ft 457 kts 262°
2026-04-07 17:15 56.70372 -33.98412 35137 ft 460 kts 262°
2026-04-07 17:16 56.69321 -34.09905 35126 ft 460 kts 262°
2026-04-07 17:16 56.68259 -34.21396 35133 ft 461 kts 262°
2026-04-07 17:17 56.67190 -34.32853 35123 ft 459 kts 262°
2026-04-07 17:17 56.66119 -34.44201 35114 ft 455 kts 262°
2026-04-07 17:18 56.65046 -34.55451 35119 ft 449 kts 262°
2026-04-07 17:18 56.63974 -34.66585 35114 ft 445 kts 262°
2026-04-07 17:19 56.62896 -34.77691 35126 ft 449 kts 261°
2026-04-07 17:19 56.61804 -34.88822 35128 ft 452 kts 261°
2026-04-07 17:20 56.60689 -35.00073 35117 ft 452 kts 261°
2026-04-07 17:20 56.59569 -35.11256 35109 ft 449 kts 261°
2026-04-07 17:21 56.58446 -35.22372 35110 ft 448 kts 261°
2026-04-07 17:21 56.57313 -35.33487 35117 ft 449 kts 261°
2026-04-07 17:22 56.56176 -35.44542 35109 ft 449 kts 261°
2026-04-07 17:22 56.55020 -35.55665 35106 ft 448 kts 261°
2026-04-07 17:23 56.53859 -35.66744 35101 ft 447 kts 260°
2026-04-07 17:23 56.52689 -35.77805 35103 ft 447 kts 260°
2026-04-07 17:24 56.51518 -35.88779 35105 ft 447 kts 260°
2026-04-07 17:24 56.50328 -35.99825 35101 ft 447 kts 260°
2026-04-07 17:25 56.49130 -36.10853 35097 ft 446 kts 260°
2026-04-07 17:25 56.47923 -36.21869 35096 ft 446 kts 260°
2026-04-07 17:26 56.46708 -36.32863 35093 ft 446 kts 259°
2026-04-07 17:26 56.45491 -36.43773 35096 ft 445 kts 259°
2026-04-07 17:27 56.44258 -36.54741 35089 ft 445 kts 259°
2026-04-07 17:27 56.43015 -36.65703 35098 ft 446 kts 259°
2026-04-07 17:28 56.41761 -36.76673 35086 ft 446 kts 259°
2026-04-07 17:28 56.40496 -36.87635 35085 ft 446 kts 259°
2026-04-07 17:29 56.39231 -36.98516 35087 ft 445 kts 259°
2026-04-07 17:29 56.37947 -37.09485 35081 ft 449 kts 255°
2026-04-07 17:30 56.36634 -37.20569 35093 ft 454 kts 255°
2026-04-07 17:30 56.35311 -37.31666 35085 ft 456 kts 255°
2026-04-07 17:31 56.33972 -37.42821 35077 ft 454 kts 255°
2026-04-07 17:31 56.32628 -37.53927 35079 ft 454 kts 255°
2026-04-07 17:32 56.31271 -37.65035 35081 ft 454 kts 255°
2026-04-07 17:32 56.29913 -37.76067 35082 ft 455 kts 255°
2026-04-07 17:33 56.28535 -37.87172 35079 ft 455 kts 255°
2026-04-07 17:33 56.27146 -37.98283 35079 ft 455 kts 255°
2026-04-07 17:34 56.25746 -38.09387 35078 ft 455 kts 255°
2026-04-07 17:34 56.24339 -38.20469 35080 ft 455 kts 255°
2026-04-07 17:35 56.22930 -38.31474 35083 ft 455 kts 255°
2026-04-07 17:35 56.21500 -38.42557 35078 ft 455 kts 254°
2026-04-07 17:36 56.20062 -38.53621 35086 ft 455 kts 254°
2026-04-07 17:36 56.18614 -38.64676 35087 ft 455 kts 254°
2026-04-07 17:37 56.17167 -38.75645 35084 ft 455 kts 254°
2026-04-07 17:37 56.15698 -38.86687 35083 ft 455 kts 254°
2026-04-07 17:38 56.14219 -38.97734 35084 ft 455 kts 254°
2026-04-07 17:38 56.12730 -39.08770 35086 ft 456 kts 254°
2026-04-07 17:39 56.11241 -39.19723 35084 ft 455 kts 254°
2026-04-07 17:39 56.09732 -39.30741 35089 ft 455 kts 254°
2026-04-07 17:40 56.08214 -39.41748 35089 ft 456 kts 254°
2026-04-07 17:40 56.06684 -39.52764 35092 ft 456 kts 254°
2026-04-07 17:41 56.05146 -39.63760 35090 ft 455 kts 253°
2026-04-07 17:41 56.03611 -39.74658 35093 ft 455 kts 253°
2026-04-07 17:42 56.02052 -39.85649 35100 ft 456 kts 253°
2026-04-07 17:42 56.00487 -39.96635 35098 ft 457 kts 254°
2026-04-07 17:43 55.99480 -40.07866 35102 ft 459 kts 261°
2026-04-07 17:43 55.98848 -40.19193 35103 ft 458 kts 261°
2026-04-07 17:44 55.98201 -40.30446 35104 ft 458 kts 261°
2026-04-07 17:44 55.97524 -40.41762 35108 ft 459 kts 261°
2026-04-07 17:45 55.96829 -40.53085 35103 ft 459 kts 261°
2026-04-07 17:45 55.96124 -40.64397 35106 ft 458 kts 261°
2026-04-07 17:46 55.95409 -40.75701 35109 ft 459 kts 261°
2026-04-07 17:46 55.94688 -40.86931 35110 ft 459 kts 261°
2026-04-07 17:47 55.93951 -40.98245 35112 ft 459 kts 261°
2026-04-07 17:47 55.93204 -41.09557 35113 ft 459 kts 261°
2026-04-07 17:48 55.92453 -41.20783 35119 ft 459 kts 261°
2026-04-07 17:48 55.91684 -41.32096 35111 ft 459 kts 260°
2026-04-07 17:49 55.90906 -41.43392 35116 ft 459 kts 260°
2026-04-07 17:49 55.90117 -41.54695 35113 ft 459 kts 260°
2026-04-07 17:50 55.89324 -41.65903 35118 ft 459 kts 260°
2026-04-07 17:50 55.88515 -41.77198 35118 ft 460 kts 260°
2026-04-07 17:51 55.87694 -41.88496 35115 ft 460 kts 260°
2026-04-07 17:51 55.86863 -41.99787 35117 ft 460 kts 260°
2026-04-07 17:52 55.86022 -42.11082 35114 ft 460 kts 260°
2026-04-07 17:52 55.85176 -42.22295 35115 ft 460 kts 260°
2026-04-07 17:53 55.84314 -42.33575 35120 ft 460 kts 259°
2026-04-07 17:53 55.83002 -42.50479 35121 ft 460 kts 259°
2026-04-07 17:54 55.82114 -42.61750 35107 ft 461 kts 259°
2026-04-07 17:54 55.81221 -42.72947 35116 ft 460 kts 259°
2026-04-07 17:55 55.80312 -42.84217 35114 ft 460 kts 259°
2026-04-07 17:55 55.79393 -42.95475 35118 ft 460 kts 259°
2026-04-07 17:56 55.78464 -43.06725 35120 ft 460 kts 259°
2026-04-07 17:56 55.77530 -43.17899 35118 ft 460 kts 259°
2026-04-07 17:57 55.76581 -43.29136 35119 ft 460 kts 259°
2026-04-07 17:57 55.75622 -43.40363 35123 ft 460 kts 259°
2026-04-07 17:58 55.74651 -43.51594 35120 ft 460 kts 259°
2026-04-07 17:58 55.73677 -43.62747 35123 ft 460 kts 258°
2026-04-07 17:59 55.72686 -43.73971 35118 ft 460 kts 258°
2026-04-07 17:59 55.71686 -43.85174 35126 ft 460 kts 258°
2026-04-07 18:00 55.70676 -43.96372 35115 ft 460 kts 258°
2026-04-07 18:00 55.69662 -44.07493 35119 ft 460 kts 258°
2026-04-07 18:01 55.68630 -44.18693 35120 ft 460 kts 258°
2026-04-07 18:01 55.67589 -44.29882 35118 ft 460 kts 258°
2026-04-07 18:02 55.66537 -44.41065 35121 ft 460 kts 258°
2026-04-07 18:02 55.65484 -44.52159 35120 ft 460 kts 258°
2026-04-07 18:03 55.64410 -44.63344 35115 ft 460 kts 258°
2026-04-07 18:03 55.63330 -44.74496 35128 ft 459 kts 258°
2026-04-07 18:04 55.62239 -44.85637 35126 ft 460 kts 258°
2026-04-07 18:04 55.61144 -44.96714 35126 ft 460 kts 257°
2026-04-07 18:05 55.60033 -45.07848 35123 ft 460 kts 257°
2026-04-07 18:05 55.58911 -45.18987 35127 ft 460 kts 257°
2026-04-07 18:06 55.57779 -45.30118 35122 ft 460 kts 257°
2026-04-07 18:06 55.56637 -45.41236 35125 ft 459 kts 257°
2026-04-07 18:07 55.55495 -45.52259 35128 ft 459 kts 257°
2026-04-07 18:07 55.54334 -45.63357 35128 ft 460 kts 257°
2026-04-07 18:08 55.53163 -45.74447 35133 ft 460 kts 257°
2026-04-07 18:08 55.51981 -45.85542 35137 ft 460 kts 257°
2026-04-07 18:09 55.50798 -45.96546 35139 ft 459 kts 257°
2026-04-07 18:09 55.49598 -46.07615 35145 ft 459 kts 257°
2026-04-07 18:10 55.48387 -46.18677 35147 ft 460 kts 257°
2026-04-07 18:10 55.47166 -46.29736 35153 ft 459 kts 256°
2026-04-07 18:11 55.45945 -46.40701 35158 ft 459 kts 256°
2026-04-07 18:11 55.44707 -46.51726 35164 ft 458 kts 256°
2026-04-07 18:12 55.43461 -46.62723 35167 ft 457 kts 256°
2026-04-07 18:12 55.42207 -46.73694 35174 ft 457 kts 256°
2026-04-07 18:13 55.40942 -46.84666 35188 ft 457 kts 256°
2026-04-07 18:13 55.39677 -46.95555 35180 ft 457 kts 256°
2026-04-07 18:14 55.38395 -47.06499 35192 ft 457 kts 256°
2026-04-07 18:14 55.37104 -47.17431 35192 ft 456 kts 256°
2026-04-07 18:15 55.35803 -47.28349 35223 ft 457 kts 256°
2026-04-07 18:15 55.34500 -47.39198 35218 ft 457 kts 256°
2026-04-07 18:16 55.33178 -47.50115 35227 ft 457 kts 255°
2026-04-07 18:16 55.31849 -47.61016 35225 ft 455 kts 255°
2026-04-07 18:17 55.30525 -47.71784 35235 ft 454 kts 255°
2026-04-07 18:17 55.29188 -47.82569 35247 ft 452 kts 255°
2026-04-07 18:18 55.27845 -47.93319 35260 ft 450 kts 255°
2026-04-07 18:18 55.26496 -48.04037 35268 ft 450 kts 255°
2026-04-07 18:19 55.25143 -48.14703 35281 ft 452 kts 255°
2026-04-07 18:19 55.23766 -48.25473 35292 ft 454 kts 255°
2026-04-07 18:20 55.22376 -48.36266 35295 ft 453 kts 255°
2026-04-07 18:20 55.20982 -48.47019 35306 ft 453 kts 255°
2026-04-07 18:21 55.19575 -48.57779 35318 ft 453 kts 255°
2026-04-07 18:21 55.18172 -48.68440 35323 ft 452 kts 254°
2026-04-07 18:22 55.16756 -48.79121 35335 ft 450 kts 254°
2026-04-07 18:22 55.15335 -48.89756 35344 ft 450 kts 254°
2026-04-07 18:23 55.13897 -49.00432 35354 ft 452 kts 254°
2026-04-07 18:23 55.12455 -49.11064 35367 ft 454 kts 254°
2026-04-07 18:24 55.10990 -49.21802 35374 ft 455 kts 254°
2026-04-07 18:24 55.09511 -49.32557 35380 ft 455 kts 254°
2026-04-07 18:25 55.08023 -49.43308 35388 ft 455 kts 254°
2026-04-07 18:25 55.06537 -49.53962 35396 ft 455 kts 254°
2026-04-07 18:26 55.05031 -49.64687 35408 ft 455 kts 253°
2026-04-07 18:26 55.03520 -49.75380 35410 ft 453 kts 253°
2026-04-07 18:27 55.02005 -49.86031 35420 ft 452 kts 253°
2026-04-07 18:27 55.00489 -49.96585 35431 ft 452 kts 252°
2026-04-07 18:28 54.98412 -50.06856 35436 ft 449 kts 245°
2026-04-07 18:28 54.95952 -50.16867 35453 ft 450 kts 245°
2026-04-07 18:29 54.93489 -50.26910 35464 ft 453 kts 245°
2026-04-07 18:29 54.91035 -50.36936 35474 ft 455 kts 245°
2026-04-07 18:30 54.88563 -50.47030 35473 ft 453 kts 245°
2026-04-07 18:30 54.86097 -50.57057 35484 ft 449 kts 245°
2026-04-07 18:31 54.83643 -50.66985 35497 ft 447 kts 245°
2026-04-07 18:31 54.81198 -50.76828 35512 ft 449 kts 245°
2026-04-07 18:32 54.78710 -50.86798 35524 ft 452 kts 245°
2026-04-07 18:32 54.76202 -50.96804 35529 ft 454 kts 245°
2026-04-07 18:33 54.73680 -51.06825 35535 ft 454 kts 245°
2026-04-07 18:33 54.71155 -51.16809 35540 ft 452 kts 244°
2026-04-07 18:34 54.68646 -51.26689 35553 ft 451 kts 244°
2026-04-07 18:34 54.66120 -51.36590 35564 ft 451 kts 244°
2026-04-07 18:35 54.63575 -51.46520 35568 ft 453 kts 244°
2026-04-07 18:35 54.61020 -51.56446 35577 ft 453 kts 244°
2026-04-07 18:36 54.58474 -51.66293 35585 ft 452 kts 244°
2026-04-07 18:36 54.55908 -51.76175 35593 ft 451 kts 244°
2026-04-07 18:37 54.53337 -51.86032 35605 ft 451 kts 244°
2026-04-07 18:37 54.50759 -51.95871 35611 ft 451 kts 244°
2026-04-07 18:38 54.48188 -52.05644 35622 ft 451 kts 244°
2026-04-07 18:38 54.45594 -52.15459 35627 ft 451 kts 244°
2026-04-07 18:39 54.42992 -52.25263 35639 ft 451 kts 244°
2026-04-07 18:39 54.40387 -52.35038 35643 ft 450 kts 244°
2026-04-07 18:40 54.37789 -52.44740 35651 ft 450 kts 243°
2026-04-07 18:40 54.35165 -52.54502 35659 ft 450 kts 243°
2026-04-07 18:41 54.32535 -52.64242 35667 ft 450 kts 243°
2026-04-07 18:41 54.29897 -52.73972 35676 ft 450 kts 243°
2026-04-07 18:42 54.27271 -52.83619 35684 ft 450 kts 243°
2026-04-07 18:42 54.24622 -52.93304 35692 ft 450 kts 243°
2026-04-07 18:43 54.21962 -53.02991 35703 ft 450 kts 243°
2026-04-07 18:43 54.19298 -53.12655 35702 ft 450 kts 243°
2026-04-07 18:44 54.16641 -53.22248 35712 ft 450 kts 243°
2026-04-07 18:44 54.13963 -53.31881 35719 ft 449 kts 243°
2026-04-07 18:45 54.11276 -53.41503 35726 ft 449 kts 243°
2026-04-07 18:45 54.08585 -53.51102 35730 ft 449 kts 243°
2026-04-07 18:46 54.05885 -53.60691 35735 ft 449 kts 243°
2026-04-07 18:46 54.03200 -53.70192 35738 ft 449 kts 243°
2026-04-07 18:47 54.00490 -53.79738 35744 ft 448 kts 243°
2026-04-07 18:47 53.97770 -53.89281 35751 ft 449 kts 243°
2026-04-07 18:48 53.95041 -53.98817 35762 ft 449 kts 242°
2026-04-07 18:48 53.92325 -54.08269 35766 ft 449 kts 242°
2026-04-07 18:49 53.89585 -54.17768 35768 ft 449 kts 242°
2026-04-07 18:49 53.86836 -54.27258 35766 ft 448 kts 242°
2026-04-07 18:50 53.84080 -54.36734 35772 ft 448 kts 242°
2026-04-07 18:50 53.81322 -54.46180 35781 ft 448 kts 242°
2026-04-07 18:51 53.78575 -54.55550 35801 ft 448 kts 242°
2026-04-07 18:51 53.75799 -54.64982 35806 ft 448 kts 242°
2026-04-07 18:52 53.73019 -54.74387 35795 ft 448 kts 242°
2026-04-07 18:52 53.70227 -54.83796 35798 ft 448 kts 242°
2026-04-07 18:53 53.67448 -54.93127 35808 ft 448 kts 242°
2026-04-07 18:53 53.64643 -55.02507 35813 ft 448 kts 242°
2026-04-07 18:54 53.61826 -55.11890 35812 ft 448 kts 242°
2026-04-07 18:54 53.59007 -55.21245 35817 ft 448 kts 242°
2026-04-07 18:55 53.56179 -55.30590 35821 ft 448 kts 242°
2026-04-07 18:55 53.53360 -55.39869 35823 ft 448 kts 242°
2026-04-07 18:56 53.50515 -55.49197 35822 ft 448 kts 242°
2026-04-07 18:56 53.47665 -55.58510 35820 ft 448 kts 242°
2026-04-07 18:57 53.44807 -55.67807 35817 ft 448 kts 242°
2026-04-07 18:57 53.41963 -55.77025 35818 ft 448 kts 242°
2026-04-07 18:58 53.39093 -55.86295 35813 ft 448 kts 242°
2026-04-07 18:58 53.36215 -55.95552 35814 ft 448 kts 242°
2026-04-07 18:59 53.33331 -56.04792 35814 ft 448 kts 242°
2026-04-07 18:59 53.30463 -56.13947 35816 ft 447 kts 242°
2026-04-07 19:00 53.27571 -56.23146 35816 ft 447 kts 242°
2026-04-07 19:00 53.24671 -56.32333 35821 ft 447 kts 242°
2026-04-07 19:01 53.21765 -56.41506 35815 ft 447 kts 242°
2026-04-07 19:02 53.17419 -56.55161 35823 ft 446 kts 241°
2026-04-07 19:02 53.14502 -56.64287 35828 ft 446 kts 241°
2026-04-07 19:03 53.11519 -56.73313 35835 ft 444 kts 237°
2026-04-07 19:03 53.07797 -56.81514 35840 ft 444 kts 230°
2026-04-07 19:04 53.03477 -56.88788 35858 ft 445 kts 225°
2026-04-07 19:04 52.98974 -56.95844 35852 ft 446 kts 225°
2026-04-07 19:05 52.94459 -57.02909 35856 ft 445 kts 225°
2026-04-07 19:05 52.89965 -57.09960 35860 ft 445 kts 225°
2026-04-07 19:06 52.85471 -57.17009 35865 ft 445 kts 225°
2026-04-07 19:06 52.81009 -57.23995 35868 ft 444 kts 225°
2026-04-07 19:07 52.76521 -57.30999 35877 ft 444 kts 225°
2026-04-07 19:07 52.72024 -57.37994 35884 ft 444 kts 225°
2026-04-07 19:08 52.67530 -57.44965 35886 ft 444 kts 225°
2026-04-07 19:08 52.63063 -57.51873 35890 ft 443 kts 225°
2026-04-07 19:09 52.58562 -57.58813 35896 ft 443 kts 225°
2026-04-07 19:09 52.54065 -57.65725 35900 ft 443 kts 225°
2026-04-07 19:10 52.49567 -57.72620 35907 ft 442 kts 225°
2026-04-07 19:10 52.45094 -57.79456 35911 ft 443 kts 225°
2026-04-07 19:11 52.40586 -57.86327 35914 ft 442 kts 225°
2026-04-07 19:11 52.36080 -57.93172 35918 ft 442 kts 225°
2026-04-07 19:12 52.31574 -57.99999 35921 ft 441 kts 225°
2026-04-07 19:12 52.27095 -58.06765 35927 ft 441 kts 225°
2026-04-07 19:13 52.22585 -58.13558 35932 ft 441 kts 225°
2026-04-07 19:13 52.18069 -58.20341 35941 ft 441 kts 225°
2026-04-07 19:14 52.13550 -58.27107 35946 ft 441 kts 225°
2026-04-07 19:14 52.09029 -58.33859 35947 ft 441 kts 225°
2026-04-07 19:15 52.04500 -58.40602 35957 ft 441 kts 224°
2026-04-07 19:15 51.99999 -58.47284 35970 ft 441 kts 224°
2026-04-07 19:16 51.95469 -58.53991 35957 ft 441 kts 224°
2026-04-07 19:16 51.90933 -58.60686 35966 ft 441 kts 224°
2026-04-07 19:17 51.86431 -58.67314 35984 ft 441 kts 224°
2026-04-07 19:17 51.81893 -58.73974 35987 ft 440 kts 224°
2026-04-07 19:18 51.77353 -58.80621 35995 ft 440 kts 224°
2026-04-07 19:18 51.72812 -58.87247 35962 ft 440 kts 224°
2026-04-07 19:19 51.68276 -58.93849 35985 ft 439 kts 224°
2026-04-07 19:19 51.63887 -59.00219 35984 ft 439 kts 224°
2026-04-07 19:20 51.59342 -59.06797 35988 ft 439 kts 224°
2026-04-07 19:20 51.54802 -59.13350 35982 ft 438 kts 224°
2026-04-07 19:21 51.50262 -59.19884 35990 ft 438 kts 224°
2026-04-07 19:21 51.45756 -59.26352 35988 ft 438 kts 224°
2026-04-07 19:22 51.41214 -59.32854 35990 ft 438 kts 224°
2026-04-07 19:22 51.36670 -59.39340 35991 ft 437 kts 224°
2026-04-07 19:23 51.32129 -59.45803 35993 ft 437 kts 224°
2026-04-07 19:23 51.27589 -59.52247 35990 ft 436 kts 224°
2026-04-07 19:24 51.23078 -59.58633 35987 ft 437 kts 224°
2026-04-07 19:24 51.18534 -59.65047 35992 ft 436 kts 224°
2026-04-07 19:25 51.13991 -59.71443 35994 ft 435 kts 224°
2026-04-07 19:25 51.09450 -59.77818 36000 ft 435 kts 224°
2026-04-07 19:26 51.04935 -59.84142 36001 ft 435 kts 224°
2026-04-07 19:26 51.00391 -59.90485 36002 ft 435 kts 224°
2026-04-07 19:27 50.95850 -59.96810 36008 ft 434 kts 224°
2026-04-07 19:27 50.91301 -60.03128 36017 ft 435 kts 224°
2026-04-07 19:28 50.86779 -60.09392 36023 ft 434 kts 224°
2026-04-07 19:28 50.82227 -60.15680 36028 ft 434 kts 224°
2026-04-07 19:29 50.77670 -60.21958 36034 ft 434 kts 224°
2026-04-07 19:29 50.73115 -60.28215 36040 ft 434 kts 224°
2026-04-07 19:30 50.68591 -60.34415 36046 ft 433 kts 224°
2026-04-07 19:30 50.64036 -60.40641 36052 ft 433 kts 224°
2026-04-07 19:31 50.59482 -60.46848 36055 ft 433 kts 224°
2026-04-07 19:31 50.54927 -60.53041 36061 ft 433 kts 224°
2026-04-07 19:32 50.50372 -60.59215 36068 ft 432 kts 224°
2026-04-07 19:32 50.45844 -60.65339 36073 ft 432 kts 224°
2026-04-07 19:33 50.41284 -60.71489 36075 ft 432 kts 224°
2026-04-07 19:33 50.36718 -60.77632 36081 ft 432 kts 224°
2026-04-07 19:34 50.32923 -60.82724 36084 ft 432 kts 224°
2026-04-07 19:34 50.27621 -60.89820 36092 ft 432 kts 224°
2026-04-07 19:35 50.23054 -60.95916 36095 ft 432 kts 224°
2026-04-07 19:35 50.19256 -61.00972 36097 ft 431 kts 224°
2026-04-07 19:36 50.14694 -61.07031 36101 ft 431 kts 224°
2026-04-07 19:36 50.09387 -61.14061 36116 ft 431 kts 224°
2026-04-07 19:37 50.04823 -61.20090 36115 ft 430 kts 224°
2026-04-07 19:37 50.01029 -61.25089 36127 ft 430 kts 224°
2026-04-07 19:38 49.96458 -61.31098 36128 ft 430 kts 224°
2026-04-07 19:38 49.91138 -61.38072 36134 ft 431 kts 224°
2026-04-07 19:39 49.87305 -61.43085 36136 ft 430 kts 224°
2026-04-07 19:39 49.82758 -61.49016 36150 ft 430 kts 224°
2026-04-07 19:40 49.78183 -61.54968 36154 ft 429 kts 224°
2026-04-07 19:40 49.73610 -61.60904 36153 ft 429 kts 224°
2026-04-07 19:41 49.69032 -61.66831 36148 ft 429 kts 224°
2026-04-07 19:41 49.64483 -61.72705 36148 ft 429 kts 224°
2026-04-07 19:42 49.59904 -61.78603 36153 ft 429 kts 224°
2026-04-07 19:42 49.55322 -61.84489 36157 ft 429 kts 224°
2026-04-07 19:43 49.50733 -61.90371 36156 ft 429 kts 224°
2026-04-07 19:43 49.46178 -61.96193 36156 ft 428 kts 223°
2026-04-07 19:44 49.41593 -62.02040 36163 ft 428 kts 223°
2026-04-07 19:44 49.37011 -62.07867 36169 ft 428 kts 223°
2026-04-07 19:45 49.32418 -62.13694 36171 ft 428 kts 223°
2026-04-07 19:45 49.27860 -62.19463 36178 ft 428 kts 223°
2026-04-07 19:46 49.23263 -62.25267 36181 ft 428 kts 223°
2026-04-07 19:46 49.18670 -62.31050 36183 ft 427 kts 223°
2026-04-07 19:47 49.14078 -62.36819 36192 ft 427 kts 223°
2026-04-07 19:47 49.09514 -62.42538 36201 ft 428 kts 223°
2026-04-07 19:48 49.04914 -62.48288 36207 ft 427 kts 223°
2026-04-07 19:48 49.00313 -62.54025 36205 ft 427 kts 223°
2026-04-07 19:49 48.95720 -62.59738 36217 ft 427 kts 223°
2026-04-07 19:49 48.93594 -62.62377 36211 ft 426 kts 223°
2026-04-07 19:50 48.88997 -62.68075 36226 ft 426 kts 223°
2026-04-07 19:50 48.84398 -62.73760 36226 ft 426 kts 223°
2026-04-07 19:51 48.79803 -62.79427 36225 ft 425 kts 223°
2026-04-07 19:51 48.75240 -62.85043 36222 ft 425 kts 223°
2026-04-07 19:52 48.70641 -62.90687 36230 ft 425 kts 223°
2026-04-07 19:52 48.66042 -62.96318 36228 ft 425 kts 223°
2026-04-07 19:53 48.61437 -63.01943 36233 ft 426 kts 223°
2026-04-07 19:53 48.56857 -63.07524 36235 ft 426 kts 223°
2026-04-07 19:54 48.52248 -63.13127 36229 ft 425 kts 223°
2026-04-07 19:54 48.47641 -63.18712 36235 ft 425 kts 223°
2026-04-07 19:55 48.43037 -63.24282 36236 ft 424 kts 223°
2026-04-07 19:55 48.38459 -63.29807 36230 ft 424 kts 223°
2026-04-07 19:56 48.33853 -63.35352 36230 ft 424 kts 223°
2026-04-07 19:56 48.29247 -63.40884 36232 ft 423 kts 223°
2026-04-07 19:57 48.24649 -63.46394 36227 ft 423 kts 223°
2026-04-07 19:57 48.20083 -63.51851 36230 ft 423 kts 223°
2026-04-07 19:58 48.15479 -63.57344 36237 ft 423 kts 223°
2026-04-07 19:58 48.10865 -63.62834 36237 ft 423 kts 223°
2026-04-07 19:59 48.06255 -63.68306 36238 ft 423 kts 223°
2026-04-07 19:59 48.01677 -63.73726 36242 ft 423 kts 223°
2026-04-07 20:00 47.97061 -63.79180 36244 ft 423 kts 223°
2026-04-07 20:00 47.90142 -63.87331 36261 ft 423 kts 223°
2026-04-07 20:01 47.87825 -63.90054 36467 ft 424 kts 223°
2026-04-07 20:01 47.85517 -63.92763 36797 ft 422 kts 223°
2026-04-07 20:01 47.83215 -63.95461 37131 ft 420 kts 223°
2026-04-07 20:01 47.80953 -63.98109 37437 ft 419 kts 223°
2026-04-07 20:02 47.78664 -64.00786 37717 ft 419 kts 223°
2026-04-07 20:02 47.76374 -64.03463 37941 ft 419 kts 223°
2026-04-07 20:02 47.74079 -64.06143 38134 ft 420 kts 223°
2026-04-07 20:02 47.71779 -64.08825 38186 ft 421 kts 222°
2026-04-07 20:03 47.67171 -64.14188 38260 ft 420 kts 222°
2026-04-07 20:03 47.62575 -64.19522 38251 ft 419 kts 222°
2026-04-07 20:04 47.58017 -64.24802 38256 ft 418 kts 222°
2026-04-07 20:04 47.53442 -64.30091 38250 ft 418 kts 222°
2026-04-07 20:05 47.48855 -64.35381 38255 ft 418 kts 222°
2026-04-07 20:05 47.44262 -64.40665 38252 ft 418 kts 222°
2026-04-07 20:06 47.39704 -64.45897 38255 ft 418 kts 222°
2026-04-07 20:06 47.35119 -64.51149 38249 ft 417 kts 222°
2026-04-07 20:07 47.30532 -64.56391 38245 ft 417 kts 222°
2026-04-07 20:07 47.26022 -64.61533 38247 ft 416 kts 222°
2026-04-07 20:08 47.21466 -64.66715 38237 ft 417 kts 222°
2026-04-07 20:08 47.16880 -64.71921 38240 ft 417 kts 222°
2026-04-07 20:09 47.12288 -64.77122 38239 ft 417 kts 222°
2026-04-07 20:09 47.07697 -64.82310 38235 ft 417 kts 222°
2026-04-07 20:10 47.03132 -64.87458 38231 ft 417 kts 222°
2026-04-07 20:10 46.98530 -64.92635 38233 ft 417 kts 222°
2026-04-07 20:11 46.93931 -64.97797 38232 ft 417 kts 222°
2026-04-07 20:11 46.89323 -65.02958 38228 ft 417 kts 222°
2026-04-07 20:12 46.84748 -65.08071 38230 ft 417 kts 222°
2026-04-07 20:12 46.80143 -65.13207 38238 ft 417 kts 222°
2026-04-07 20:13 46.75525 -65.18345 38227 ft 417 kts 222°
2026-04-07 20:13 46.70906 -65.23473 38224 ft 417 kts 222°
2026-04-07 20:14 46.66321 -65.28551 38228 ft 417 kts 222°
2026-04-07 20:14 46.61709 -65.33648 38222 ft 416 kts 222°
2026-04-07 20:15 46.57103 -65.38729 38226 ft 416 kts 222°
2026-04-07 20:15 46.52487 -65.43810 38244 ft 417 kts 222°
2026-04-07 20:16 46.47893 -65.48854 38231 ft 417 kts 222°
2026-04-07 20:16 46.43271 -65.53918 38230 ft 416 kts 222°
2026-04-07 20:17 46.38654 -65.58965 38233 ft 415 kts 222°
2026-04-07 20:17 46.34042 -65.63997 38234 ft 416 kts 222°
2026-04-07 20:18 46.29452 -65.68995 38236 ft 416 kts 222°
2026-04-07 20:18 46.24826 -65.74020 38235 ft 416 kts 222°
2026-04-07 20:19 46.20198 -65.79035 38232 ft 416 kts 222°
2026-04-07 20:19 46.15572 -65.84038 38234 ft 415 kts 222°
2026-04-07 20:20 46.10979 -65.88995 38234 ft 415 kts 222°
2026-04-07 20:20 46.06353 -65.93977 38226 ft 415 kts 222°
2026-04-07 20:21 46.01731 -65.98945 38232 ft 414 kts 222°
2026-04-07 20:21 45.97112 -66.03897 38221 ft 413 kts 222°
2026-04-07 20:22 45.92532 -66.08798 38222 ft 413 kts 222°
2026-04-07 20:22 45.87918 -66.13726 38220 ft 414 kts 222°
2026-04-07 20:23 45.83303 -66.18643 38230 ft 413 kts 222°
2026-04-07 20:23 45.78693 -66.23546 38230 ft 412 kts 222°
2026-04-07 20:24 45.74113 -66.28405 38220 ft 413 kts 222°
2026-04-07 20:24 45.69497 -66.33293 38226 ft 413 kts 222°
2026-04-07 20:25 45.64881 -66.38170 38226 ft 413 kts 222°
2026-04-07 20:25 45.60263 -66.43040 38225 ft 412 kts 222°
2026-04-07 20:26 45.55643 -66.47901 38227 ft 412 kts 222°
2026-04-07 20:26 45.51061 -66.52712 38229 ft 411 kts 222°
2026-04-07 20:27 45.46452 -66.57541 38240 ft 411 kts 222°
2026-04-07 20:27 45.41843 -66.62362 38245 ft 411 kts 222°
2026-04-07 20:28 45.37228 -66.67177 38237 ft 411 kts 222°
2026-04-07 20:28 45.32654 -66.71941 38241 ft 410 kts 222°
2026-04-07 20:29 45.28046 -66.76729 38241 ft 410 kts 222°
2026-04-07 20:29 45.23439 -66.81508 38243 ft 410 kts 222°
2026-04-07 20:30 45.18833 -66.86276 38241 ft 410 kts 222°
2026-04-07 20:30 45.14252 -66.91007 38244 ft 410 kts 222°
2026-04-07 20:31 45.09651 -66.95749 38239 ft 409 kts 222°
2026-04-07 20:31 45.05056 -67.00477 38251 ft 408 kts 222°
2026-04-07 20:32 45.00461 -67.05197 38249 ft 408 kts 222°
2026-04-07 20:32 44.95858 -67.09915 38250 ft 409 kts 222°
2026-04-07 20:33 44.91605 -67.15029 38255 ft 401 kts 231°
2026-04-07 20:33 44.87887 -67.20882 38250 ft 400 kts 235°
2026-04-07 20:34 44.84745 -67.27345 38255 ft 400 kts 239°
2026-04-07 20:34 44.81724 -67.33946 38245 ft 400 kts 239°
2026-04-07 20:35 44.78866 -67.40168 38243 ft 400 kts 239°
2026-04-07 20:36 44.72643 -67.53576 38248 ft 400 kts 239°
2026-04-07 20:36 44.69615 -67.60065 38246 ft 400 kts 239°
2026-04-07 20:37 44.66561 -67.66594 38237 ft 400 kts 239°
2026-04-07 20:37 44.63503 -67.73117 38231 ft 400 kts 239°
2026-04-07 20:38 44.60446 -67.79622 38241 ft 400 kts 239°
2026-04-07 20:38 44.57379 -67.86134 38238 ft 399 kts 239°
2026-04-07 20:39 44.54337 -67.92578 38243 ft 398 kts 239°
2026-04-07 20:39 44.51276 -67.99049 38252 ft 399 kts 239°
2026-04-07 20:40 44.48199 -68.05540 38255 ft 399 kts 239°
2026-04-07 20:40 44.45122 -68.12014 38263 ft 399 kts 239°
2026-04-07 20:41 44.42045 -68.18475 38261 ft 399 kts 239°
2026-04-07 20:41 44.38963 -68.24931 38261 ft 399 kts 239°
2026-04-07 20:42 44.35906 -68.31321 38095 ft 397 kts 239°
2026-04-07 20:42 44.34379 -68.34506 37715 ft 392 kts 239°
2026-04-07 20:42 44.32875 -68.37639 37339 ft 385 kts 239°
2026-04-07 20:43 44.31385 -68.40740 36896 ft 385 kts 239°
2026-04-07 20:43 44.29893 -68.43844 36589 ft 385 kts 239°
2026-04-07 20:43 44.28405 -68.46938 36329 ft 383 kts 239°
2026-04-07 20:43 44.26922 -68.50018 36088 ft 382 kts 239°
2026-04-07 20:44 44.25442 -68.53086 35819 ft 380 kts 239°
2026-04-07 20:44 44.23970 -68.56135 35531 ft 379 kts 239°
2026-04-07 20:44 44.22501 -68.59176 35245 ft 377 kts 239°
2026-04-07 20:44 44.21037 -68.62201 34979 ft 375 kts 238°
2026-04-07 20:45 44.19601 -68.65165 34702 ft 373 kts 238°
2026-04-07 20:45 44.18148 -68.68162 34338 ft 373 kts 238°
2026-04-07 20:45 44.16699 -68.71149 33958 ft 372 kts 238°
2026-04-07 20:45 44.15249 -68.74134 33476 ft 372 kts 238°
2026-04-07 20:46 44.13795 -68.77125 32963 ft 373 kts 238°
2026-04-07 20:46 44.12336 -68.80123 32417 ft 374 kts 238°
2026-04-07 20:46 44.10875 -68.83122 31892 ft 375 kts 238°
2026-04-07 20:46 44.09409 -68.86128 31425 ft 375 kts 238°
2026-04-07 20:47 44.07952 -68.89111 31107 ft 371 kts 238°
2026-04-07 20:47 44.06509 -68.92061 30821 ft 367 kts 238°
2026-04-07 20:47 44.05080 -68.94981 30500 ft 364 kts 238°
2026-04-07 20:47 44.03663 -68.97872 30147 ft 361 kts 238°
2026-04-07 20:48 44.02252 -69.00751 29704 ft 360 kts 238°
2026-04-07 20:48 44.00864 -69.03581 29328 ft 358 kts 238°
2026-04-07 20:48 43.98051 -69.09305 29256 ft 359 kts 238°
2026-04-07 20:49 43.95229 -69.15038 29197 ft 358 kts 238°
2026-04-07 20:49 43.92414 -69.20743 29195 ft 360 kts 238°
2026-04-07 20:50 43.89581 -69.26475 29195 ft 360 kts 238°
2026-04-07 20:50 43.86747 -69.32197 29192 ft 359 kts 238°
2026-04-07 20:51 43.83935 -69.37863 29187 ft 359 kts 238°
2026-04-07 20:51 43.81100 -69.43566 29189 ft 359 kts 238°
2026-04-07 20:52 43.78261 -69.49268 29178 ft 359 kts 238°
2026-04-07 20:52 43.76847 -69.52100 28983 ft 356 kts 238°
2026-04-07 20:52 43.75423 -69.54888 28554 ft 356 kts 235°
2026-04-07 20:53 43.73676 -69.57312 27974 ft 366 kts 226°
2026-04-07 20:53 43.71631 -69.59455 27578 ft 370 kts 222°
2026-04-07 20:53 43.69476 -69.61410 27293 ft 372 kts 218°
2026-04-07 20:53 43.67108 -69.62920 26971 ft 382 kts 209°
2026-04-07 20:54 43.64573 -69.64070 26651 ft 383 kts 207°
2026-04-07 20:54 43.62030 -69.65180 26317 ft 383 kts 207°
2026-04-07 20:54 43.59491 -69.66285 25978 ft 383 kts 207°
2026-04-07 20:54 43.56961 -69.67395 25669 ft 382 kts 207°
2026-04-07 20:55 43.54466 -69.68499 25374 ft 381 kts 207°
2026-04-07 20:55 43.51944 -69.69624 25081 ft 380 kts 207°
2026-04-07 20:55 43.49430 -69.70751 24782 ft 380 kts 207°
2026-04-07 20:55 43.46917 -69.71880 24492 ft 379 kts 207°
2026-04-07 20:56 43.44411 -69.73006 24211 ft 379 kts 207°
2026-04-07 20:56 43.41907 -69.74131 23931 ft 379 kts 207°
2026-04-07 20:56 43.39397 -69.75258 23616 ft 379 kts 207°
2026-04-07 20:56 43.36896 -69.76380 23325 ft 378 kts 207°
2026-04-07 20:57 43.34406 -69.77495 23054 ft 376 kts 207°
2026-04-07 20:57 43.31919 -69.78608 22780 ft 375 kts 206°
2026-04-07 20:57 43.29478 -69.79700 22524 ft 374 kts 206°
2026-04-07 20:57 43.27010 -69.80803 22255 ft 373 kts 206°
2026-04-07 20:58 43.24546 -69.81903 21986 ft 372 kts 206°
2026-04-07 20:58 43.22090 -69.82999 21729 ft 371 kts 206°
2026-04-07 20:58 43.19638 -69.84093 21482 ft 370 kts 206°
2026-04-07 20:58 43.17194 -69.85181 21230 ft 369 kts 206°
2026-04-07 20:59 43.14757 -69.86266 20976 ft 368 kts 206°
2026-04-07 20:59 43.12320 -69.87350 20739 ft 368 kts 206°
2026-04-07 20:59 43.09890 -69.88430 20496 ft 367 kts 206°
2026-04-07 20:59 43.07496 -69.89494 20271 ft 366 kts 205°
2026-04-07 21:00 43.05074 -69.90569 19929 ft 367 kts 205°
2026-04-07 21:00 43.00226 -69.92715 18830 ft 365 kts 205°
2026-04-07 21:00 42.97819 -69.93779 18179 ft 363 kts 205°
2026-04-07 21:01 42.95422 -69.94837 17484 ft 361 kts 204°
2026-04-07 21:01 42.93039 -69.95889 16793 ft 359 kts 204°
2026-04-07 21:01 42.90669 -69.96935 16127 ft 357 kts 204°
2026-04-07 21:01 42.88343 -69.97960 15489 ft 355 kts 204°
2026-04-07 21:02 42.85994 -69.98996 14851 ft 354 kts 204°
2026-04-07 21:02 42.83660 -70.00025 14224 ft 352 kts 204°
2026-04-07 21:02 42.81358 -70.01036 13447 ft 343 kts 203°
2026-04-07 21:02 42.79103 -70.02027 12615 ft 342 kts 203°
2026-04-07 21:03 42.76820 -70.03033 11816 ft 346 kts 202°
2026-04-07 21:03 42.74533 -70.04077 11044 ft 348 kts 204°
2026-04-07 21:03 42.72259 -70.05211 10434 ft 346 kts 204°
2026-04-07 21:03 42.70037 -70.06325 10245 ft 335 kts 204°
2026-04-07 21:04 42.67853 -70.07419 10133 ft 332 kts 205°
2026-04-07 21:04 42.65855 -70.08989 10087 ft 334 kts 222°
2026-04-07 21:04 42.64297 -70.11245 10091 ft 331 kts 235°
2026-04-07 21:04 42.63186 -70.13956 9766 ft 328 kts 246°
2026-04-07 21:05 42.62269 -70.16789 9112 ft 328 kts 247°
2026-04-07 21:05 42.61332 -70.19616 8464 ft 328 kts 246°
2026-04-07 21:05 42.60381 -70.22432 7827 ft 327 kts 247°
2026-04-07 21:05 42.59570 -70.25297 7278 ft 319 kts 252°
2026-04-07 21:06 42.58889 -70.28053 7123 ft 295 kts 252°
2026-04-07 21:06 42.58271 -70.30522 7092 ft 259 kts 252°
2026-04-07 21:06 42.57724 -70.32688 7063 ft 227 kts 252°
2026-04-07 21:06 42.57239 -70.34591 7040 ft 204 kts 252°
2026-04-07 21:07 42.56781 -70.36377 6982 ft 203 kts 252°
2026-04-07 21:07 42.56315 -70.38191 6616 ft 204 kts 252°
2026-04-07 21:07 42.55846 -70.39996 6177 ft 201 kts 253°
2026-04-07 21:07 42.55376 -70.41789 6153 ft 202 kts 253°
2026-04-07 21:08 42.54903 -70.43582 6107 ft 202 kts 252°
2026-04-07 21:08 42.54291 -70.45305 6055 ft 206 kts 239°
2026-04-07 21:08 42.53437 -70.46861 5999 ft 205 kts 236°
2026-04-07 21:08 42.52557 -70.48386 6002 ft 205 kts 236°
2026-04-07 21:09 42.51676 -70.49905 6000 ft 205 kts 236°
2026-04-07 21:09 42.50790 -70.51428 6001 ft 206 kts 236°
2026-04-07 21:09 42.49916 -70.52931 6003 ft 206 kts 236°
2026-04-07 21:09 42.49030 -70.54454 5999 ft 206 kts 236°
2026-04-07 21:10 42.48143 -70.55979 6002 ft 206 kts 236°
2026-04-07 21:10 42.47290 -70.57525 5995 ft 203 kts 239°
2026-04-07 21:10 42.46439 -70.59071 6001 ft 206 kts 236°
2026-04-07 21:10 42.45555 -70.60611 5719 ft 210 kts 236°
2026-04-07 21:11 42.44638 -70.62201 5092 ft 218 kts 236°
2026-04-07 21:11 42.43695 -70.63833 4286 ft 222 kts 236°
2026-04-07 21:11 42.42736 -70.65488 3566 ft 223 kts 236°
2026-04-07 21:11 42.41835 -70.67090 3277 ft 204 kts 244°
2026-04-07 21:12 42.41362 -70.68845 3163 ft 202 kts 259°
2026-04-07 21:12 42.41005 -70.70686 3105 ft 201 kts 258°
2026-04-07 21:12 42.40661 -70.72512 3020 ft 198 kts 259°
2026-04-07 21:12 42.40345 -70.74272 2999 ft 191 kts 259°
2026-04-07 21:13 42.40035 -70.76028 3003 ft 191 kts 259°
2026-04-07 21:13 42.39728 -70.77770 2997 ft 189 kts 259°
2026-04-07 21:13 42.39423 -70.79499 3009 ft 189 kts 259°
2026-04-07 21:13 42.39113 -70.81260 2768 ft 192 kts 259°
2026-04-07 21:14 42.38806 -70.82994 2495 ft 187 kts 260°
2026-04-07 21:14 42.38511 -70.84668 2225 ft 176 kts 259°
2026-04-07 21:14 42.38239 -70.86204 1998 ft 168 kts 260°
2026-04-07 21:14 42.37971 -70.87726 1768 ft 161 kts 260°
2026-04-07 21:15 42.37725 -70.89119 1547 ft 150 kts 261°
2026-04-07 21:15 42.37484 -70.90487 1345 ft 147 kts 261°
2026-04-07 21:15 42.37248 -70.91830 1132 ft 146 kts 261°
2026-04-07 21:15 42.37023 -70.93099 900 ft 131 kts 259°
2026-04-07 21:16 42.36815 -70.94275 726 ft 128 kts 261°
2026-04-07 21:16 42.36608 -70.95454 565 ft 132 kts 260°
2026-04-07 21:16 42.36388 -70.96683 384 ft 136 kts 259°
2026-04-07 21:16 42.36166 -70.97902 213 ft 134 kts 259°
2026-04-07 21:17 42.35962 -70.99134 63 ft 137 kts 260°
2026-04-07 21:17 42.35738 -71.00363 44 ft 129 kts 258°
2026-04-07 21:17 42.35560 -71.01405 30 ft 77 kts 257°
2026-04-07 21:17 42.35540 -71.01549 30 ft 0 kts 261°